{"data":{"norad_id":69177,"epoch":"2026-09-19T21:34:39.224640Z","epoch_age_seconds":79624,"freshness":"FRESH","line1":"1 69177U 26112A   26262.89906510  .00002273  00000+0  18734-3 0  9997","line2":"2 69177  44.9077  54.7849 0025346 220.2671 139.6324 15.01984898 18112","mean_motion":15.01984898,"eccentricity":0.0025346,"inclination_deg":44.9077,"raan_deg":54.7849,"arg_perigee_deg":220.2671,"mean_anomaly_deg":139.6324,"bstar":0.00018734,"rev_number":1811,"period_min":95.873134404844,"perigee_km":543.188976134,"apogee_km":578.36371566704,"semimajor_km":6938.9133459005,"source":"CELESTRAK","updated_at":"2026-09-20T09:00:24.723819Z"}}